TimeEDT,TemperatureF,Dew PointF,Humidity,Sea Level PressureIn,VisibilityMPH,Wind Direction,Wind SpeedMPH,Gust SpeedMPH,PrecipitationIn,Events,Conditions,WindDirDegrees,DateUTC
12:53 AM,36.0,27.0,70,30.12,10.0,Calm,Calm,-,N/A,,Clear,0,2012-03-30 04:53:00
1:53 AM,33.1,28.0,82,30.10,10.0,Calm,Calm,-,N/A,,Clear,0,2012-03-30 05:53:00
2:53 AM,35.1,28.0,76,30.08,10.0,East,5.8,-,N/A,,Clear,80,2012-03-30 06:53:00
3:53 AM,36.0,27.0,70,30.09,10.0,Calm,Calm,-,N/A,,Clear,0,2012-03-30 07:53:00
4:53 AM,36.0,27.0,70,30.08,10.0,East,4.6,-,N/A,,Clear,90,2012-03-30 08:53:00
5:53 AM,35.1,27.0,72,30.06,10.0,East,6.9,-,N/A,,Clear,80,2012-03-30 09:53:00
7:53 AM,36.0,28.0,73,30.06,10.0,East,5.8,-,N/A,,Clear,80,2012-03-30 11:53:00
8:53 AM,37.9,28.0,68,30.04,10.0,ESE,5.8,-,N/A,,Clear,110,2012-03-30 12:53:00
9:53 AM,41.0,28.9,62,30.03,10.0,East,5.8,-,N/A,,Clear,90,2012-03-30 13:53:00
10:53 AM,45.0,30.9,58,30.00,10.0,SSE,6.9,-,N/A,,Partly Cloudy,160,2012-03-30 14:53:00
11:53 AM,50.0,33.1,52,29.96,10.0,SSE,8.1,-,N/A,,Scattered Clouds,150,2012-03-30 15:53:00
12:53 PM,53.1,34.0,48,29.93,10.0,Variable,4.6,-,N/A,,Overcast,0,2012-03-30 16:53:00
2:53 PM,63.0,41.0,45,29.82,10.0,Variable,6.9,19.6,N/A,,Scattered Clouds,0,2012-03-30 18:53:00
3:53 PM,64.0,43.0,46,29.78,10.0,SSE,10.4,-,N/A,,Mostly Cloudy,150,2012-03-30 19:53:00
4:53 PM,64.9,45.0,48,29.75,10.0,SSE,8.1,-,N/A,,Overcast,150,2012-03-30 20:53:00
5:53 PM,68.0,46.9,47,29.70,10.0,South,5.8,-,N/A,,Scattered Clouds,170,2012-03-30 21:53:00
6:53 PM,66.9,48.0,51,29.70,10.0,South,6.9,-,N/A,,Clear,180,2012-03-30 22:53:00
7:44 PM,64.4,48.2,56,29.65,10.0,SSE,6.9,-,N/A,Thunderstorm,Mostly Cloudy,150,2012-03-30 23:44:00
7:53 PM,64.9,48.9,56,29.64,10.0,SE,5.8,-,0.00,Rain-Thunderstorm,Light Thunderstorms and Rain,140,2012-03-30 23:53:00
8:08 PM,60.8,51.8,72,29.67,1.8,SSE,11.5,42.6,0.16,Rain-Thunderstorm,Heavy Thunderstorms and Rain,160,2012-03-31 00:08:00
8:17 PM,57.2,51.8,82,29.69,3.0,NW,3.5,19.6,0.20,Rain-Thunderstorm,Light Thunderstorms and Rain,320,2012-03-31 00:17:00
8:53 PM,57.0,54.0,89,29.71,5.0,WNW,4.6,-,0.21,Rain,Rain,300,2012-03-31 00:53:00
9:06 PM,57.2,53.6,88,29.70,7.0,East,3.5,-,0.02,Rain-Thunderstorm,Light Rain,100,2012-03-31 01:06:00
9:46 PM,57.2,53.6,88,29.69,9.0,SE,3.5,-,0.08,,Overcast,140,2012-03-31 01:46:00
9:53 PM,57.0,54.0,89,29.70,8.0,SE,4.6,-,0.08,,Mostly Cloudy,140,2012-03-31 01:53:00
10:53 PM,57.0,54.0,89,29.70,6.0,Calm,Calm,-,N/A,,Overcast,0,2012-03-31 02:53:00
11:38 PM,55.4,53.6,94,29.72,1.5,Calm,Calm,-,N/A,,Mostly Cloudy,0,2012-03-31 03:38:00
11:41 PM,55.4,53.6,94,29.72,0.8,Calm,Calm,-,N/A,,Scattered Clouds,0,2012-03-31 03:41:00
11:50 PM,55.4,53.6,94,29.72,1.5,NW,3.5,-,N/A,,Mostly Cloudy,320,2012-03-31 03:50:00
11:53 PM,55.9,54.0,93,29.73,4.0,NW,3.5,-,N/A,,Mostly Cloudy,320,2012-03-31 03:53:00